Location: Eyguians
(44.3459°N, 5.7727°E)
Time: 12:35:41
(UTC+00:00)

Daily predictions for brighter satellites

Satellite Brightness Start Highest point End
(mag) Time Altitude Azimuth Time Altitude Azimuth Time Altitude Azimuth
H-2A R/B 2.9 16:26:06 10° S 16:29:57 84° WSW 16:33:53 10° NNW
Cosmos 1633 Rocket 3.5 16:26:56 10° N 16:31:04 39° ENE 16:35:08 10° SE
Cosmos 1933 3.7 16:27:47 10° SSE 16:31:37 43° E 16:35:30 10° NNE
Spot 2 4.4 16:27:30 10° SSE 16:32:13 89° WSW 16:37:14 10° NNW
Nadezhda 1 Rocket 4.5 16:27:29 10° SSW 16:33:48 69° W 16:40:13 10° N
Meteor 2-12 Rocket 4.4 16:29:07 10° N 16:35:17 77° E 16:41:23 10° SSE
Cosmos 2218 Rocket 4.3 16:31:39 10° N 16:37:32 45° ENE 16:43:24 10° SSE
Cosmos 1867 4.1 16:32:40 10° SW 16:38:02 59° NW 16:43:27 10° NNE
Cosmos 2366 rocket 4.3 16:32:36 10° N 16:38:30 44° ENE 16:44:18 10° SSE
Meteor 1-25 Rocket 4.4 16:33:49 10° N 16:39:21 53° ENE 16:44:55 10° SSE
ERS-2 3.8 16:36:59 10° NE 16:39:26 17° E 16:41:51 10° SE
Envisat 3.1 16:36:34 10° SSE 16:41:39 89° WSW 16:46:46 10° NNW
Lacrosse 5 rocket 1.8 16:43:08 10° WSW 16:46:41 44° NW 16:50:08 10° NE
Cosmos 773 Rocket 4.1 16:42:34 10° S 16:47:45 63° ESE 16:53:00 10° NNE
SL-23 DEB 4.2 16:44:43 10° SW 16:48:04 55° SE 16:52:39 12° ENE
YAOGAN 6 2.7 16:47:09 10° S 16:50:46 83° WSW 16:54:23 10° NNW
Cosmos 1606 3.5 16:49:31 10° SSW 16:53:19 54° W 16:57:09 10° N
Cosmos 2297 3.9 16:49:14 10° NNW 16:54:56 79° WSW 17:00:38 10° SSE
OE (NEXTSAT) 4.4 16:52:20 10° W 16:55:46 64° N 16:58:30 15° E
AQUARIUS 4.1 16:51:28 10° SSE 16:55:54 66° ENE 17:00:22 10° N
FengYun 1-2 T 4.3 16:50:35 10° SE 16:55:56 53° ENE 17:01:16 10° N
SL-16 R/B 2.4 16:52:09 10° SSW 16:57:47 74° WNW 17:03:28 10° NNE
CZ-4B R/B 2.1 16:56:25 11° NE 16:59:02 30° E 17:01:52 10° SSE
Landsat 5 4.1 16:55:44 10° N 17:00:11 65° WNW 17:04:38 10° SSW
BREEZE-M DEB (TANK) 1.6 16:59:40 10° WSW 17:02:20 71° NNW 17:03:26 22° ENE
USA 215 4.2 16:59:20 13° ENE 17:04:17 31° SE 17:09:55 10° S
SMAP 3.1 17:00:16 10° SSE 17:04:55 89° WSW 17:09:36 10° NNW
Cosmos 1500 4.3 17:03:28 10° NNE 17:06:33 23° ENE 17:09:38 10° SE
Sich 1 4.5 17:04:29 10° NNW 17:08:36 41° W 17:12:38 10° SSW
YAOGAN 1 4.0 17:09:19 17° NE 17:09:19 17° NE 17:11:43 10° NNE
Cosmos 1656 Rocket 4.3 17:05:51 10° N 17:10:54 32° NE 17:15:51 10° ESE
Cosmos 1151 Rocket 3.0 17:07:25 10° S 17:11:42 84° W 17:15:59 10° N
Cosmos 1470 Rocket 3.5 17:09:19 10° N 17:13:37 63° E 17:17:54 10° SSE
Cosmos 864 Rocket 4.5 17:13:12 10° N 17:19:32 86° E 17:25:46 10° S
Cosmos 1515 Rocket 3.6 17:15:25 10° S 17:19:42 59° E 17:24:04 10° NNE
Cosmos 2263 4.4 17:14:28 10° NNW 17:19:53 47° ENE 17:25:15 10° SE
CZ-2C R/B 3.7 17:16:34 10° SE 17:20:48 29° ENE 17:24:55 10° N
SL-8 Rocket 4.3 17:16:30 10° NNW 17:22:43 72° W 17:28:58 10° S
Cosmos 482 Debris 3.2 17:21:28 10° WNW 17:23:13 49° SW 17:23:46 34° SSE
Cosmos 1238 Rocket 3.9 17:22:10 10° NNE 17:25:45 28° ENE 17:29:57 10° SE
COSMO-SKYMED 1 2.8 17:23:06 13° NNE 17:26:44 46° E 17:30:54 10° S
Cosmos 1689 Rocket 3.9 17:29:01 18° SE 17:29:01 18° SE 17:30:08 10° SSE
USA 281 3.7 17:21:59 10° ESE 17:27:54 38° NE 17:33:50 10° N
X-37B 0.5 17:25:18 10° WSW 17:28:29 81° SSE 17:29:28 41° E
Nadezhda 3 Rocket 4.3 17:23:07 10° SSE 17:29:05 45° E 17:35:05 10° NNE
SAR-Lupe-4 4.0 17:29:13 31° ENE 17:30:17 40° E 17:33:41 10° S
Meteor 2-6 Rocket 4.4 17:26:48 10° SSE 17:32:07 47° E 17:37:14 10° NNE
Helios 1A Rocket 4.0 17:33:25 25° NE 17:33:25 25° NE 17:35:47 10° N
Cosmos 2228 Rocket 3.5 17:28:07 10° SSE 17:32:20 39° E 17:34:29 24° NE
Meteor 1-4 Rocket 2.9 17:30:08 10° SSW 17:33:42 62° WNW 17:37:13 10° N
H-2A R/B 2.8 17:35:18 28° ENE 17:35:41 28° ENE 17:39:59 10° N
Cosmos 1812 3.1 17:32:35 10° SSE 17:36:10 39° E 17:36:35 38° ENE
USA 267 3.9 17:34:11 24° ENE 17:37:28 39° NNE 17:43:25 10° NW
Cosmos 1939 Rocket 2.6 17:34:17 10° SSE 17:38:08 75° ENE 17:42:05 10° N
Cosmos 1821 Rocket 4.1 17:32:19 10° N 17:38:28 55° ENE 17:44:39 10° SSE
CZ-4 R/B 4.5 17:35:56 10° SSE 17:39:57 54° ENE 17:44:00 10° N
CZ-4 R/B 2.2 17:41:27 31° NE 17:41:27 31° NE 17:44:11 10° N
Meteor 1-11 Rocket 4.3 17:36:07 10° N 17:41:27 36° ENE 17:46:50 10° SE
BREEZE-M DEB (TANK) 3.2 17:39:12 10° SW 17:42:33 27° SSE 17:42:53 26° SE
PSLV R/B 4.1 17:42:20 40° ENE 17:43:06 45° E 17:46:59 10° S
Cosmos 44 Rocket 3.7 17:38:24 10° NNW 17:43:22 45° NE 17:45:09 33° E
Cosmos 1933 Rocket 3.5 17:39:12 10° N 17:43:42 90° NW 17:48:09 10° S
IRS-1C Rocket 4.0 17:39:13 10° SSE 17:44:28 71° ENE 17:49:44 10° N
Cosmos 546 4.5 17:41:30 10° WSW 17:45:20 89° SSE 17:46:15 51° ENE
SAR-Lupe-1 4.0 17:46:35 50° NE 17:47:17 64° ESE 17:50:50 10° S
Lacrosse 4 Rocket 3.1 17:45:29 10° SSE 17:46:59 17° SE 17:46:59 17° SE
Cosmos 1680 Rocket 3.8 17:44:12 10° S 17:49:08 43° ESE 17:50:18 37° ENE
SKYMED 3 4.4 17:47:24 17° NNE 17:50:48 85° ESE 17:55:08 10° SSW
SL-24 R/B 3.5 17:49:33 38° NNE 17:50:51 74° ESE 17:54:29 10° S
Cosmos 1603 3.6 17:47:43 10° SSW 17:53:20 86° ESE 17:56:56 23° NNE
CZ-2D R/B 3.1 17:51:11 10° SSE 17:55:00 82° ENE 17:58:52 10° N
Cosmos 1943 3.1 17:51:03 10° SSW 17:56:42 81° ESE 17:59:58 27° NNE
H-2A R/B 4.4 17:55:01 10° NNW 17:58:14 22° WNW 18:01:31 10° WSW
Cosmos 2369 Rocket 2.6 17:54:01 10° NNW 17:59:40 66° WSW 18:05:13 10° SSE
Cosmos 1943 Rocket 3.6 17:55:38 10° NW 18:00:46 39° WSW 18:05:54 10° S
Okean O Rocket 3.9 17:58:19 10° SSW 18:01:56 25° W 18:05:36 10° NW
Meteor 1-5 Rocket 4.2 17:56:03 10° N 18:01:59 83° E 18:07:42 10° SSE
Cosmos 1782 4.4 17:58:31 10° SW 18:02:09 34° WNW 18:05:50 10° N
Okean-O 2.5 17:58:57 10° SSE 18:03:20 69° ENE 18:07:45 10° N
Cosmos 1461 3.9 17:59:17 10° S 18:02:44 36° SE 18:02:44 36° SE
ARGOS 4.4 18:08:31 25° NNE 18:08:31 25° NNE 18:11:04 10° N
CENTAUR R/B 2.7 18:01:21 10° S 18:06:49 47° ESE 18:07:44 44° E
ISS -1.9 18:04:08 10° NW 18:05:55 23° NNW 18:05:55 23° NNW
Cosmos 2112 Rocket 4.0 18:04:32 10° S 18:09:40 55° ESE 18:09:53 55° E
Cosmos 2056 Rocket 4.4 18:06:08 10° N 18:09:29 32° NNE 18:09:29 32° NNE
ERS-2 3.7 18:10:45 17° NNW 18:13:05 34° WNW 18:16:24 10° SW
SKYMED 2 4.2 18:11:44 18° N 18:14:49 54° WNW 18:19:03 10° SSW
NOSS 3-2 (C) 3.4 18:09:34 10° SSW 18:14:55 51° ESE 18:15:09 50° ESE
Cosmos 1869 Rocket 3.6 18:13:57 10° N 18:22:43 11° S 18:22:55 10° S
BREEZE-M DEB (TANK) 3.0 18:11:55 10° WSW 18:19:58 82° SSE 18:19:59 82° SSE
Meteor 1-27 Rocket 3.7 18:15:22 10° S 18:20:11 56° ESE 18:20:11 56° ESE
Meteor 1-10 Rocket 4.2 18:19:36 10° SSW 18:25:15 78° W 18:28:49 23° N
Lacrosse 5 rocket 3.6 18:24:35 10° NW 18:25:53 13° NNW 18:25:53 13° NNW
Cosmos 371 Rocket 4.5 18:25:22 10° NNW 18:28:01 32° N 18:28:01 32° N
CZ-4B R/B 4.3 18:29:34 11° NW 18:31:01 14° WNW 18:32:44 10° W
NOSS 3-2 (A) 3.5 18:34:37 10° SW 18:40:16 70° NW 18:41:26 56° N
YAOGAN 1 4.1 18:46:29 29° NW 18:46:29 29° NW 18:48:49 10° NNW
Cosmos 1535 Rocket 4.3 18:39:48 10° N 18:45:57 86° W 18:52:04 10° S
USA 215 3.2 18:46:42 66° NNE 18:47:41 81° NW 18:54:14 10° WSW
MOS 1 Rocket 4.3 18:52:43 37° NNW 18:54:30 53° WNW 18:59:41 10° SSW
USA 238 DEB 3.9 18:53:08 10° SW 18:59:40 63° NW 19:00:34 58° N
USA 238 3.9 18:53:13 10° SW 18:59:45 64° NW 19:00:39 58° NNW
CZ-2C R/B 4.4 18:56:04 10° SSW 19:00:36 34° W 19:05:00 10° NNW
USA 281 4.0 19:05:57 10° S 19:12:14 48° WSW 19:18:34 10° NW
H-2A R/B 3.4 19:15:55 37° WNW 19:15:55 37° WNW 19:19:46 10° NNW
CZ-4 R/B 4.3 19:17:27 14° WNW 19:17:27 14° WNW 19:18:27 10° NW
USA 267 3.6 19:21:32 58° NW 19:21:32 58° NW 19:26:38 10° NW
CENTAUR R/B 4.1 19:51:50 10° WSW 19:54:58 29° W 19:54:58 29° W
